| time (UTC) | temp F | wind direction | speed MPH | gust MPH | rain 1hr in | rain 24hr in | rain mn in | humidity % | barometer mb |
| 20260510133929 | 51 | 351 | 0.0 | 4.0 | 0.00 | 0.00 | 0.00 | 52 | 1018.6 |
| 20260510133205 | 49 | 323 | 0.0 | 8.0 | 0.00 | 0.00 | 0.00 | 53 | 1018.6 |
| 20260510132927 | 49 | 339 | 0.0 | 8.0 | 0.00 | 0.00 | 0.00 | 54 | 1018.7 |
| 20260510132206 | 49 | 342 | 0.0 | 5.0 | 0.00 | 0.00 | 0.00 | 54 | 1018.7 |
| 20260510131707 | 48 | 329 | 0.0 | 4.0 | 0.00 | 0.00 | 0.00 | 54 | 1018.7 |
| 20260510131205 | 48 | 341 | 0.0 | 3.0 | 0.00 | 0.00 | 0.00 | 58 | 1018.6 |
| 20260510130705 | 48 | 355 | 0.0 | 1.0 | 0.00 | 0.00 | 0.00 | 56 | 1018.6 |
| 20260510130435 | 48 | 0 | 0.0 | 1.0 | 0.00 | 0.00 | 0.00 | 57 | 1018.5 |
| 20260510125933 | 47 | 324 | 0.0 | 1.0 | 0.00 | 0.00 | 0.00 | 57 | 1018.4 |
| 20260510125205 | 47 | 341 | 0.0 | 0.0 | 0.00 | 0.00 | 0.00 | 57 | 1018.3 |
| 20260510124705 | 46 | 355 | 0.0 | 0.0 | 0.00 | 0.00 | 0.00 | 58 | 1018.3 |
| 20260510124435 | 46 | 355 | 0.0 | 0.0 | 0.00 | 0.00 | 0.00 | 58 | 1018.3 |
| 20260510123701 | 46 | 355 | 0.0 | 0.0 | 0.00 | 0.00 | 0.00 | 59 | 1018.3 |
| 20260510123202 | 45 | 333 | 0.0 | 0.0 | 0.00 | 0.00 | 0.00 | 60 | 1018.3 |
| 20260510122701 | 45 | 331 | 0.0 | 0.0 | 0.00 | 0.00 | 0.00 | 62 | 1018.2 |
| 20260510122424 | 45 | 331 | 0.0 | 0.0 | 0.00 | 0.00 | 0.00 | 61 | 1018.1 |
| 20260510121700 | 44 | 330 | 0.0 | 0.0 | 0.00 | 0.00 | 0.00 | 61 | 1018.1 |
| 20260510121200 | 44 | 330 | 0.0 | 0.0 | 0.00 | 0.00 | 0.00 | 63 | 1018.0 |
| 20260510120702 | 44 | 330 | 0.0 | 0.0 | 0.00 | 0.00 | 0.00 | 63 | 1018.0 |
| 20260510120158 | 44 | 330 | 0.0 | 0.0 | 0.00 | 0.00 | 0.00 | 64 | 1017.9 |
| 20260510115659 | 43 | 330 | 0.0 | 0.0 | 0.00 | 0.00 | 0.00 | 65 | 1017.9 |
| 20260510115157 | 43 | 328 | 0.0 | 0.0 | 0.00 | 0.00 | 0.00 | 66 | 1017.8 |
| 20260510114657 | 43 | 328 | 0.0 | 0.0 | 0.00 | 0.00 | 0.00 | 67 | 1017.8 |
| 20260510114158 | 42 | 328 | 0.0 | 0.0 | 0.00 | 0.00 | 0.00 | 68 | 1017.7 |
| 20260510113657 | 42 | 328 | 0.0 | 0.0 | 0.00 | 0.00 | 0.00 | 69 | 1017.7 |
| 20260510113158 | 42 | 328 | 0.0 | 0.0 | 0.00 | 0.00 | 0.00 | 69 | 1017.6 |
| 20260510112657 | 42 | 328 | 0.0 | 0.0 | 0.00 | 0.00 | 0.00 | 69 | 1017.4 |
| 20260510112157 | 42 | 328 | 0.0 | 0.0 | 0.00 | 0.00 | 0.00 | 69 | 1017.3 |
| 20260510111659 | 42 | 328 | 0.0 | 0.0 | 0.00 | 0.00 | 0.00 | 69 | 1017.3 |
| 20260510111421 | 42 | 328 | 0.0 | 0.0 | 0.00 | 0.00 | 0.00 | 70 | 1017.3 |
| 20260510110655 | 41 | 328 | 0.0 | 0.0 | 0.00 | 0.00 | 0.00 | 71 | 1017.1 |
| 20260510110153 | 41 | 328 | 0.0 | 0.0 | 0.00 | 0.00 | 0.00 | 71 | 1017.1 |
| 20260510105654 | 41 | 309 | 0.0 | 0.0 | 0.00 | 0.00 | 0.00 | 73 | 1017.0 |
| 20260510105413 | 41 | 309 | 0.0 | 0.0 | 0.00 | 0.00 | 0.00 | 72 | 1016.8 |
| 20260510104654 | 40 | 309 | 0.0 | 0.0 | 0.00 | 0.00 | 0.00 | 72 | 1016.7 |
| 20260510104154 | 40 | 309 | 0.0 | 0.0 | 0.00 | 0.00 | 0.00 | 71 | 1016.6 |
| 20260510103920 | 40 | 309 | 0.0 | 0.0 | 0.00 | 0.00 | 0.00 | 71 | 1016.5 |
| 20260510103153 | 40 | 309 | 0.0 | 0.0 | 0.00 | 0.00 | 0.00 | 71 | 1016.5 |
| 20260510102654 | 40 | 309 | 0.0 | 0.0 | 0.00 | 0.00 | 0.00 | 71 | 1016.6 |
| 20260510102154 | 40 | 309 | 0.0 | 0.0 | 0.00 | 0.00 | 0.00 | 70 | 1016.5 |
| 20260510101653 | 40 | 309 | 0.0 | 0.0 | 0.00 | 0.00 | 0.00 | 70 | 1016.5 |
| 20260510101153 | 40 | 309 | 0.0 | 0.0 | 0.00 | 0.00 | 0.00 | 70 | 1016.4 |
| 20260510100654 | 41 | 309 | 0.0 | 0.0 | 0.00 | 0.00 | 0.00 | 69 | 1016.3 |
| 20260510100154 | 41 | 309 | 0.0 | 0.0 | 0.00 | 0.00 | 0.00 | 69 | 1016.3 |
| 20260510095655 | 41 | 309 | 0.0 | 0.0 | 0.00 | 0.00 | 0.00 | 69 | 1016.2 |
| 20260510095149 | 41 | 309 | 0.0 | 0.0 | 0.00 | 0.00 | 0.00 | 69 | 1016.2 |
| 20260510094650 | 41 | 309 | 0.0 | 0.0 | 0.00 | 0.00 | 0.00 | 69 | 1016.1 |
| 20260510094149 | 41 | 309 | 0.0 | 0.0 | 0.00 | 0.00 | 0.00 | 69 | 1015.9 |
| 20260510093919 | 41 | 309 | 0.0 | 0.0 | 0.00 | 0.00 | 0.00 | 69 | 1016.0 |
| 20260510093146 | 41 | 309 | 0.0 | 0.0 | 0.00 | 0.00 | 0.00 | 69 | 1015.9 |
| 20260510092906 | 41 | 309 | 0.0 | 0.0 | 0.00 | 0.00 | 0.00 | 68 | 1015.9 |
| 20260510092141 | 41 | 309 | 0.0 | 0.0 | 0.00 | 0.00 | 0.00 | 68 | 1015.7 |
| 20260510091640 | 41 | 309 | 0.0 | 0.0 | 0.00 | 0.00 | 0.00 | 68 | 1015.7 |
| 20260510091138 | 41 | 309 | 0.0 | 0.0 | 0.00 | 0.00 | 0.00 | 67 | 1015.8 |
| 20260510090635 | 41 | 309 | 0.0 | 0.0 | 0.00 | 0.00 | 0.00 | 67 | 1015.7 |
| 20260510090134 | 41 | 309 | 0.0 | 0.0 | 0.00 | 0.00 | 0.00 | 68 | 1015.7 |
| 20260510085634 | 41 | 309 | 0.0 | 0.0 | 0.00 | 0.00 | 0.00 | 67 | 1015.6 |
| 20260510085130 | 41 | 309 | 0.0 | 0.0 | 0.00 | 0.00 | 0.00 | 67 | 1015.5 |
| 20260510084846 | 41 | 309 | 0.0 | 0.0 | 0.00 | 0.00 | 0.00 | 66 | 1015.4 |
| 20260510084124 | 41 | 309 | 0.0 | 0.0 | 0.00 | 0.00 | 0.00 | 66 | 1015.4 |
| 20260510083624 | 42 | 309 | 0.0 | 0.0 | 0.00 | 0.00 | 0.00 | 66 | 1015.3 |
| 20260510083119 | 42 | 309 | 0.0 | 0.0 | 0.00 | 0.00 | 0.00 | 65 | 1015.0 |
| 20260510082618 | 42 | 313 | 0.0 | 0.0 | 0.00 | 0.00 | 0.00 | 65 | 1015.1 |
| 20260510082117 | 42 | 333 | 0.0 | 0.0 | 0.00 | 0.00 | 0.00 | 66 | 1015.2 |
| 20260510081617 | 42 | 333 | 0.0 | 0.0 | 0.00 | 0.00 | 0.00 | 65 | 1014.9 |
| 20260510081330 | 42 | 333 | 0.0 | 0.0 | 0.00 | 0.00 | 0.00 | 65 | 1014.9 |
| 20260510081212 | 42 | 333 | 0.0 | 0.0 | 0.00 | 0.00 | 0.00 | 65 | 1014.9 |
| 20260510080609 | 42 | 333 | 0.0 | 0.0 | 0.00 | 0.00 | 0.00 | 64 | 1014.9 |
| 20260510075615 | 42 | 333 | 0.0 | 0.0 | 0.00 | 0.00 | 0.00 | 64 | 1014.8 |
| 20260510075115 | 42 | 333 | 0.0 | 0.0 | 0.00 | 0.00 | 0.00 | 63 | 1014.9 |
| 20260510074612 | 42 | 333 | 0.0 | 0.0 | 0.00 | 0.00 | 0.00 | 63 | 1014.9 |
| 20260510074110 | 43 | 333 | 0.0 | 0.0 | 0.00 | 0.00 | 0.00 | 62 | 1014.8 |
| 20260510073607 | 43 | 333 | 0.0 | 0.0 | 0.00 | 0.00 | 0.00 | 62 | 1014.8 |
| 20260510073325 | 43 | 333 | 0.0 | 0.0 | 0.00 | 0.00 | 0.00 | 61 | 1014.8 |
| 20260510072603 | 43 | 333 | 0.0 | 0.0 | 0.00 | 0.00 | 0.00 | 60 | 1014.8 |
| 20260510072101 | 43 | 333 | 0.0 | 0.0 | 0.00 | 0.00 | 0.00 | 60 | 1014.8 |
| 20260510071602 | 44 | 333 | 0.0 | 0.0 | 0.00 | 0.00 | 0.00 | 59 | 1014.8 |
| 20260510071055 | 44 | 333 | 0.0 | 0.0 | 0.00 | 0.00 | 0.00 | 58 | 1014.8 |
| 20260510070549 | 44 | 333 | 0.0 | 0.0 | 0.00 | 0.00 | 0.00 | 58 | 1014.8 |
| 20260510070045 | 44 | 333 | 0.0 | 0.0 | 0.00 | 0.00 | 0.00 | 57 | 1014.8 |
| 20260510065543 | 44 | 333 | 0.0 | 0.0 | 0.00 | 0.00 | 0.00 | 57 | 1014.8 |
| 20260510065042 | 44 | 333 | 0.0 | 0.0 | 0.00 | 0.00 | 0.00 | 56 | 1014.8 |
| 20260510064539 | 44 | 333 | 0.0 | 0.0 | 0.00 | 0.00 | 0.00 | 56 | 1014.8 |
| 20260510064037 | 45 | 333 | 0.0 | 0.0 | 0.00 | 0.00 | 0.00 | 55 | 1014.8 |
| 20260510063535 | 45 | 333 | 0.0 | 0.0 | 0.00 | 0.00 | 0.00 | 55 | 1014.8 |
| 20260510063033 | 45 | 333 | 0.0 | 0.0 | 0.00 | 0.00 | 0.00 | 54 | 1014.7 |
| 20260510062533 | 45 | 333 | 0.0 | 0.0 | 0.00 | 0.00 | 0.00 | 53 | 1014.8 |
| 20260510062250 | 45 | 333 | 0.0 | 0.0 | 0.00 | 0.00 | 0.00 | 53 | 1014.7 |
| 20260510061528 | 45 | 333 | 0.0 | 0.0 | 0.00 | 0.00 | 0.00 | 53 | 1014.7 |
| 20260510061027 | 45 | 333 | 0.0 | 0.0 | 0.00 | 0.00 | 0.00 | 52 | 1014.7 |
| 20260510060746 | 45 | 333 | 0.0 | 0.0 | 0.00 | 0.00 | 0.00 | 51 | 1014.7 |
| 20260510060026 | 46 | 333 | 0.0 | 0.0 | 0.00 | 0.00 | 0.00 | 51 | 1014.7 |
| 20260510055523 | 46 | 333 | 0.0 | 0.0 | 0.00 | 0.00 | 0.00 | 50 | 1014.6 |
| 20260510055512 | 46 | 333 | 0.0 | 0.0 | 0.00 | 0.00 | 0.00 | 50 | 1014.7 |
| 20260510054525 | 46 | 333 | 0.0 | 0.0 | 0.00 | 0.00 | 0.00 | 49 | 1014.6 |
| 20260510054023 | 47 | 333 | 0.0 | 0.0 | 0.00 | 0.00 | 0.00 | 49 | 1014.6 |
| 20260510053520 | 47 | 333 | 0.0 | 0.0 | 0.00 | 0.00 | 0.00 | 48 | 1014.5 |
| 20260510053013 | 47 | 333 | 0.0 | 0.0 | 0.00 | 0.00 | 0.00 | 48 | 1014.5 |
| 20260510052514 | 48 | 333 | 0.0 | 0.0 | 0.00 | 0.00 | 0.00 | 47 | 1014.5 |
| 20260510052013 | 48 | 333 | 0.0 | 0.0 | 0.00 | 0.00 | 0.00 | 47 | 1014.4 |
| 20260510051512 | 49 | 333 | 0.0 | 0.0 | 0.00 | 0.00 | 0.00 | 46 | 1014.4 |
| 20260510051011 | 49 | 333 | 0.0 | 0.0 | 0.00 | 0.00 | 0.00 | 45 | 1014.3 |
| 20260510050509 | 49 | 333 | 0.0 | 0.0 | 0.00 | 0.00 | 0.00 | 44 | 1014.4 |
| 20260510050009 | 50 | 333 | 0.0 | 0.0 | 0.00 | 0.00 | 0.00 | 44 | 1014.3 |
| 20260510045738 | 50 | 333 | 0.0 | 0.0 | 0.00 | 0.00 | 0.00 | 43 | 1014.3 |
| 20260510045006 | 50 | 333 | 0.0 | 5.0 | 0.00 | 0.00 | 0.00 | 42 | 1014.3 |
| 20260510044504 | 50 | 333 | 0.0 | 5.0 | 0.00 | 0.00 | 0.00 | 42 | 1014.3 |
| 20260510044005 | 51 | 350 | 0.0 | 1.0 | 0.00 | 0.00 | 0.00 | 42 | 1014.3 |
| 20260510043505 | 51 | 329 | 0.0 | 1.0 | 0.00 | 0.00 | 0.00 | 41 | 1014.3 |
| 20260510043003 | 51 | 338 | 0.0 | 4.0 | 0.00 | 0.00 | 0.00 | 41 | 1014.3 |
| 20260510042503 | 51 | 331 | 0.0 | 4.0 | 0.00 | 0.00 | 0.00 | 40 | 1014.3 |
| 20260510042001 | 52 | 0 | 0.0 | 3.0 | 0.00 | 0.00 | 0.00 | 40 | 1014.3 |
| 20260510041501 | 52 | 310 | 0.0 | 5.0 | 0.00 | 0.00 | 0.00 | 39 | 1014.3 |
| 20260510041000 | 52 | 328 | 0.0 | 6.0 | 0.00 | 0.00 | 0.00 | 39 | 1014.2 |
| 20260510040500 | 52 | 329 | 1.0 | 7.0 | 0.00 | 0.00 | 0.00 | 39 | 1014.2 |
| 20260510040000 | 52 | 355 | 0.0 | 7.0 | 0.00 | 0.00 | 0.00 | 39 | 1014.1 |
| 20260510035500 | 52 | 355 | 0.0 | 3.0 | 0.00 | 0.00 | 0.00 | 38 | 1014.0 |
| 20260510034959 | 52 | 355 | 0.0 | 7.0 | 0.00 | 0.00 | 0.00 | 38 | 1014.0 |
| 20260510034500 | 52 | 325 | 0.0 | 7.0 | 0.00 | 0.00 | 0.00 | 38 | 1013.9 |
| 20260510033959 | 52 | 303 | 0.0 | 5.0 | 0.00 | 0.00 | 0.00 | 38 | 1013.9 |
| 20260510033459 | 52 | 5 | 0.0 | 5.0 | 0.00 | 0.00 | 0.00 | 38 | 1013.7 |
| 20260510032958 | 52 | 333 | 0.0 | 4.0 | 0.00 | 0.00 | 0.00 | 37 | 1013.6 |
| 20260510032457 | 53 | 319 | 0.0 | 2.0 | 0.00 | 0.00 | 0.00 | 38 | 1013.6 |
| 20260510031954 | 53 | 320 | 0.0 | 1.0 | 0.00 | 0.00 | 0.00 | 37 | 1013.4 |
| 20260510031456 | 53 | 338 | 0.0 | 1.0 | 0.00 | 0.00 | 0.00 | 37 | 1013.3 |
| 20260510030955 | 53 | 317 | 0.0 | 1.0 | 0.00 | 0.00 | 0.00 | 37 | 1013.2 |
| 20260510030454 | 53 | 355 | 0.0 | 1.0 | 0.00 | 0.00 | 0.00 | 36 | 1013.2 |
| 20260510025953 | 53 | 335 | 0.0 | 1.0 | 0.00 | 0.00 | 0.00 | 36 | 1013.1 |
| 20260510025452 | 54 | 320 | 0.0 | 3.0 | 0.00 | 0.00 | 0.00 | 36 | 1013.0 |
| 20260510024953 | 54 | 321 | 0.0 | 3.0 | 0.00 | 0.00 | 0.00 | 35 | 1012.9 |
| 20260510024452 | 54 | 340 | 0.0 | 5.0 | 0.00 | 0.00 | 0.00 | 35 | 1012.8 |
| 20260510024214 | 54 | 342 | 1.0 | 7.0 | 0.00 | 0.00 | 0.00 | 35 | 1012.6 |
| 20260510023453 | 54 | 5 | 1.0 | 7.0 | 0.00 | 0.00 | 0.00 | 35 | 1012.5 |
| 20260510022952 | 54 | 323 | 0.0 | 4.0 | 0.00 | 0.00 | 0.00 | 35 | 1012.4 |
| 20260510022451 | 54 | 313 | 0.0 | 7.0 | 0.00 | 0.00 | 0.00 | 35 | 1012.3 |
| 20260510022216 | 55 | 309 | 0.0 | 7.0 | 0.00 | 0.00 | 0.00 | 35 | 1012.2 |
| 20260510021712 | 55 | 331 | 0.0 | 5.0 | 0.00 | 0.00 | 0.00 | 34 | 1012.1 |
| 20260510021216 | 55 | 335 | 1.0 | 6.0 | 0.00 | 0.00 | 0.00 | 34 | 1012.0 |
| 20260510020450 | 55 | 293 | 1.0 | 6.0 | 0.00 | 0.00 | 0.00 | 34 | 1011.9 |
| 20260510015949 | 55 | 331 | 1.0 | 7.0 | 0.00 | 0.00 | 0.00 | 34 | 1011.8 |
| 20260510015931 | 55 | 341 | 1.0 | 7.0 | 0.00 | 0.00 | 0.00 | 34 | 1011.7 |
| 20260510014949 | 55 | 5 | 0.0 | 6.0 | 0.00 | 0.00 | 0.00 | 34 | 1011.6 |
| 20260510014449 | 55 | 331 | 0.0 | 6.0 | 0.00 | 0.00 | 0.00 | 34 | 1011.5 |
| 20260510014212 | 55 | 323 | 1.0 | 9.0 | 0.00 | 0.00 | 0.00 | 33 | 1011.5 |
| 20260510013448 | 56 | 304 | 1.0 | 9.0 | 0.00 | 0.00 | 0.00 | 33 | 1011.3 |
| 20260510012949 | 56 | 332 | 1.0 | 6.0 | 0.00 | 0.00 | 0.00 | 33 | 1011.3 |
| 20260510012449 | 56 | 325 | 1.0 | 9.0 | 0.00 | 0.00 | 0.00 | 32 | 1011.2 |
| 20260510011948 | 56 | 341 | 1.0 | 9.0 | 0.00 | 0.00 | 0.00 | 32 | 1011.1 |
| 20260510011449 | 56 | 355 | 1.0 | 6.0 | 0.00 | 0.00 | 0.00 | 32 | 1011.0 |
| 20260510011212 | 56 | 318 | 1.0 | 8.0 | 0.00 | 0.00 | 0.00 | 32 | 1011.0 |
| 20260510010449 | 56 | 355 | 1.0 | 8.0 | 0.00 | 0.00 | 0.00 | 32 | 1010.9 |
| 20260510010208 | 57 | 5 | 1.0 | 7.0 | 0.00 | 0.00 | 0.00 | 32 | 1010.9 |
| 20260510005449 | 57 | 335 | 1.0 | 8.0 | 0.00 | 0.00 | 0.00 | 32 | 1010.7 |
| 20260510004950 | 57 | 328 | 1.0 | 8.0 | 0.00 | 0.00 | 0.00 | 31 | 1010.7 |
| 20260510004449 | 57 | 345 | 1.0 | 6.0 | 0.00 | 0.00 | 0.00 | 31 | 1010.7 |
| 20260510003948 | 57 | 346 | 1.0 | 5.0 | 0.00 | 0.00 | 0.00 | 31 | 1010.6 |
| 20260510003448 | 57 | 309 | 1.0 | 8.0 | 0.00 | 0.00 | 0.00 | 30 | 1010.6 |
| 20260510002950 | 57 | 344 | 2.0 | 9.0 | 0.00 | 0.00 | 0.00 | 30 | 1010.5 |
| 20260510002446 | 58 | 310 | 2.0 | 9.0 | 0.00 | 0.00 | 0.00 | 30 | 1010.4 |
| 20260510001943 | 58 | 331 | 2.0 | 8.0 | 0.00 | 0.00 | 0.00 | 30 | 1010.5 |
| 20260510001444 | 58 | 334 | 2.0 | 6.0 | 0.00 | 0.00 | 0.00 | 30 | 1010.4 |
| 20260510000943 | 59 | 298 | 1.0 | 8.0 | 0.00 | 0.00 | 0.00 | 30 | 1010.3 |
| 20260510000444 | 59 | 306 | 1.0 | 12.0 | 0.00 | 0.00 | 0.00 | 29 | 1010.2 |
| 20260509235941 | 59 | 336 | 2.0 | 12.0 | 0.00 | 0.00 | 0.00 | 29 | 1010.0 |
| 20260509235441 | 59 | 314 | 3.0 | 16.0 | 0.00 | 0.00 | 0.00 | 29 | 1010.2 |
| 20260509235210 | 59 | 331 | 4.0 | 16.0 | 0.00 | 0.00 | 0.00 | 28 | 1010.0 |
| 20260509234440 | 60 | 343 | 3.0 | 14.0 | 0.00 | 0.00 | 0.00 | 27 | 1009.9 |
| 20260509234423 | 60 | 331 | 2.0 | 12.0 | 0.00 | 0.00 | 0.00 | 27 | 1009.9 |
| 20260509233439 | 60 | 290 | 2.0 | 11.0 | 0.00 | 0.00 | 0.00 | 28 | 1009.8 |
| 20260509232933 | 60 | 316 | 3.0 | 10.0 | 0.00 | 0.00 | 0.00 | 27 | 1009.9 |
| 20260509232652 | 60 | 279 | 2.0 | 10.0 | 0.00 | 0.00 | 0.00 | 28 | 1009.8 |
| 20260509232157 | 60 | 319 | 1.0 | 11.0 | 0.00 | 0.00 | 0.00 | 28 | 1009.8 |
| 20260509231430 | 60 | 333 | 3.0 | 12.0 | 0.00 | 0.00 | 0.00 | 28 | 1009.7 |
| 20260509230931 | 60 | 336 | 3.0 | 12.0 | 0.00 | 0.00 | 0.00 | 27 | 1009.7 |
| 20260509230431 | 61 | 346 | 2.0 | 12.0 | 0.00 | 0.00 | 0.00 | 27 | 1009.6 |
| 20260509230151 | 61 | 349 | 2.0 | 12.0 | 0.00 | 0.00 | 0.00 | 28 | 1009.5 |
| 20260509225430 | 61 | 355 | 2.0 | 9.0 | 0.00 | 0.00 | 0.00 | 28 | 1009.4 |
| 20260509224931 | 61 | 312 | 1.0 | 9.0 | 0.00 | 0.00 | 0.00 | 29 | 1009.4 |
| 20260509224430 | 61 | 332 | 1.0 | 11.0 | 0.00 | 0.00 | 0.00 | 30 | 1009.2 |
| 20260509223930 | 61 | 15 | 2.0 | 11.0 | 0.00 | 0.00 | 0.00 | 29 | 1009.2 |
| 20260509223432 | 61 | 329 | 2.0 | 10.0 | 0.00 | 0.00 | 0.00 | 29 | 1009.2 |
| 20260509222931 | 60 | 311 | 1.0 | 10.0 | 0.00 | 0.00 | 0.00 | 29 | 1009.1 |
| 20260509222429 | 60 | 321 | 2.0 | 8.0 | 0.00 | 0.00 | 0.00 | 30 | 1009.1 |
| 20260509221927 | 60 | 297 | 2.0 | 8.0 | 0.00 | 0.00 | 0.00 | 29 | 1009.2 |
| 20260509221428 | 60 | 15 | 1.0 | 7.0 | 0.00 | 0.00 | 0.00 | 29 | 1009.1 |
| 20260509220925 | 60 | 337 | 3.0 | 11.0 | 0.00 | 0.00 | 0.00 | 28 | 1009.1 |
| 20260509220426 | 61 | 348 | 4.0 | 12.0 | 0.00 | 0.00 | 0.00 | 28 | 1009.2 |
| 20260509215927 | 61 | 325 | 3.0 | 12.0 | 0.00 | 0.00 | 0.00 | 27 | 1009.1 |
| 20260509215427 | 61 | 327 | 2.0 | 10.0 | 0.00 | 0.00 | 0.00 | 28 | 1009.1 |
| 20260509214926 | 61 | 320 | 3.0 | 12.0 | 0.00 | 0.00 | 0.00 | 28 | 1009.0 |
| 20260509214645 | 61 | 298 | 3.0 | 12.0 | 0.00 | 0.00 | 0.00 | 26 | 1008.9 |
| 20260509214151 | 62 | 304 | 2.0 | 7.0 | 0.00 | 0.00 | 0.00 | 28 | 1008.9 |
| 20260509213426 | 62 | 310 | 1.0 | 7.0 | 0.00 | 0.00 | 0.00 | 28 | 1008.9 |
| 20260509212927 | 61 | 331 | 2.0 | 13.0 | 0.00 | 0.00 | 0.00 | 29 | 1008.8 |
| 20260509212426 | 61 | 337 | 3.0 | 13.0 | 0.00 | 0.00 | 0.00 | 28 | 1008.8 |
| 20260509211926 | 62 | 323 | 3.0 | 11.0 | 0.00 | 0.00 | 0.00 | 28 | 1008.8 |
| 20260509211426 | 62 | 295 | 2.0 | 7.0 | 0.00 | 0.00 | 0.00 | 27 | 1008.8 |
| 20260509210919 | 62 | 242 | 3.0 | 15.0 | 0.00 | 0.00 | 0.00 | 28 | 1008.8 |
| 20260509210414 | 62 | 338 | 3.0 | 15.0 | 0.00 | 0.00 | 0.00 | 28 | 1008.7 |
| 20260509205916 | 61 | 343 | 3.0 | 10.0 | 0.00 | 0.00 | 0.00 | 29 | 1008.6 |
| 20260509205414 | 61 | 306 | 5.0 | 14.0 | 0.00 | 0.00 | 0.00 | 28 | 1008.6 |
| 20260509204914 | 61 | 18 | 4.0 | 14.0 | 0.00 | 0.00 | 0.00 | 28 | 1008.6 |
| 20260509204414 | 62 | 350 | 3.0 | 14.0 | 0.00 | 0.00 | 0.00 | 27 | 1008.6 |
| 20260509203914 | 61 | 328 | 3.0 | 14.0 | 0.00 | 0.00 | 0.00 | 29 | 1008.6 |
| 20260509203415 | 62 | 310 | 3.0 | 13.0 | 0.00 | 0.00 | 0.00 | 28 | 1008.5 |
| 20260509202915 | 61 | 315 | 3.0 | 13.0 | 0.00 | 0.00 | 0.00 | 28 | 1008.3 |
| 20260509202412 | 62 | 0 | 2.0 | 11.0 | 0.00 | 0.00 | 0.00 | 27 | 1008.4 |
| 20260509201911 | 62 | 322 | 2.0 | 11.0 | 0.00 | 0.00 | 0.00 | 29 | 1008.4 |
| 20260509201409 | 62 | 321 | 2.0 | 11.0 | 0.00 | 0.00 | 0.00 | 28 | 1008.4 |
| 20260509200909 | 62 | 302 | 3.0 | 11.0 | 0.00 | 0.00 | 0.00 | 30 | 1008.4 |
| 20260509200410 | 61 | 314 | 4.0 | 11.0 | 0.00 | 0.00 | 0.00 | 30 | 1008.3 |
| 20260509200126 | 61 | 321 | 4.0 | 15.0 | 0.00 | 0.00 | 0.00 | 27 | 1008.4 |
| 20260509195410 | 62 | 324 | 3.0 | 15.0 | 0.00 | 0.00 | 0.00 | 27 | 1008.3 |
| 20260509194909 | 62 | 325 | 3.0 | 13.0 | 0.00 | 0.00 | 0.00 | 28 | 1008.3 |
| 20260509194633 | 61 | 287 | 3.0 | 11.0 | 0.00 | 0.00 | 0.00 | 30 | 1008.2 |
| 20260509193907 | 62 | 300 | 3.0 | 11.0 | 0.00 | 0.00 | 0.00 | 30 | 1008.3 |
| 20260509193632 | 62 | 290 | 3.0 | 10.0 | 0.00 | 0.00 | 0.00 | 30 | 1008.1 |
| 20260509192909 | 61 | 310 | 3.0 | 11.0 | 0.00 | 0.00 | 0.00 | 31 | 1008.1 |
| 20260509192627 | 60 | 333 | 4.0 | 14.0 | 0.00 | 0.00 | 0.00 | 31 | 1008.1 |
| 20260509191907 | 60 | 349 | 5.0 | 17.0 | 0.00 | 0.00 | 0.00 | 32 | 1008.1 |
| 20260509191406 | 60 | 335 | 4.0 | 17.0 | 0.00 | 0.00 | 0.00 | 29 | 1008.1 |
| 20260509190908 | 61 | 319 | 3.0 | 12.0 | 0.00 | 0.00 | 0.00 | 31 | 1008.0 |
| 20260509190406 | 61 | 355 | 3.0 | 14.0 | 0.00 | 0.00 | 0.00 | 30 | 1008.1 |
| 20260509185906 | 60 | 301 | 3.0 | 14.0 | 0.00 | 0.00 | 0.00 | 32 | 1007.8 |
| 20260509185407 | 60 | 340 | 3.0 | 11.0 | 0.00 | 0.00 | 0.00 | 32 | 1007.9 |
| 20260509184905 | 60 | 342 | 4.0 | 13.0 | 0.00 | 0.00 | 0.00 | 32 | 1007.9 |
| 20260509184404 | 60 | 322 | 3.0 | 14.0 | 0.00 | 0.00 | 0.00 | 32 | 1007.9 |
| 20260509183904 | 60 | 323 | 4.0 | 14.0 | 0.00 | 0.00 | 0.00 | 32 | 1007.8 |
| 20260509183357 | 59 | 348 | 5.0 | 13.0 | 0.00 | 0.00 | 0.00 | 32 | 1007.7 |
| 20260509182857 | 59 | 351 | 5.0 | 13.0 | 0.00 | 0.00 | 0.00 | 30 | 1007.7 |
| 20260509182356 | 60 | 355 | 3.0 | 13.0 | 0.00 | 0.00 | 0.00 | 30 | 1007.7 |
| 20260509181858 | 61 | 317 | 2.0 | 8.0 | 0.00 | 0.00 | 0.00 | 35 | 1007.6 |
| 20260509181357 | 60 | 289 | 2.0 | 8.0 | 0.00 | 0.00 | 0.00 | 35 | 1007.6 |
| 20260509180856 | 59 | 333 | 3.0 | 12.0 | 0.00 | 0.00 | 0.00 | 36 | 1007.5 |
| 20260509180844 | 60 | 309 | 3.0 | 12.0 | 0.00 | 0.00 | 0.00 | 36 | 1007.5 |
| 20260509180123 | 60 | 309 | 2.0 | 10.0 | 0.00 | 0.00 | 0.00 | 36 | 1007.5 |
| 20260509175626 | 60 | 355 | 2.0 | 10.0 | 0.00 | 0.00 | 0.00 | 36 | 1007.5 |
| 20260509174857 | 60 | 27 | 2.0 | 12.0 | 0.00 | 0.00 | 0.00 | 37 | 1007.5 |
| 20260509174356 | 59 | 314 | 3.0 | 12.0 | 0.00 | 0.00 | 0.00 | 38 | 1007.5 |
| 20260509173857 | 59 | 325 | 4.0 | 14.0 | 0.00 | 0.00 | 0.00 | 37 | 1007.6 |
| 20260509173615 | 60 | 325 | 3.0 | 14.0 | 0.00 | 0.00 | 0.00 | 38 | 1007.5 |
| 20260509173119 | 60 | 328 | 2.0 | 12.0 | 0.00 | 0.00 | 0.00 | 38 | 1007.3 |
| 20260509172353 | 59 | 328 | 2.0 | 7.0 | 0.00 | 0.00 | 0.00 | 38 | 1007.3 |
| 20260509172113 | 59 | 333 | 3.0 | 12.0 | 0.00 | 0.00 | 0.00 | 38 | 1007.3 |
| 20260509171349 | 59 | 340 | 3.0 | 12.0 | 0.00 | 0.00 | 0.00 | 38 | 1007.3 |
| 20260509170849 | 59 | 26 | 3.0 | 11.0 | 0.00 | 0.00 | 0.00 | 38 | 1007.1 |
| 20260509170608 | 58 | 315 | 4.0 | 13.0 | 0.00 | 0.00 | 0.00 | 37 | 1007.2 |
| 20260509165848 | 58 | 355 | 4.0 | 13.0 | 0.00 | 0.00 | 0.00 | 38 | 1007.1 |
| 20260509165346 | 58 | 326 | 3.0 | 13.0 | 0.00 | 0.00 | 0.00 | 39 | 1007.0 |
| 20260509164844 | 59 | 347 | 2.0 | 10.0 | 0.00 | 0.00 | 0.00 | 39 | 1006.9 |
| 20260509164605 | 59 | 0 | 3.0 | 11.0 | 0.00 | 0.00 | 0.00 | 40 | 1007.0 |
| 20260509164103 | 58 | 5 | 4.0 | 11.0 | 0.00 | 0.00 | 0.00 | 40 | 1006.9 |
| 20260509163343 | 58 | 0 | 3.0 | 13.0 | 0.00 | 0.00 | 0.00 | 39 | 1006.7 |
| 20260509162843 | 58 | 319 | 4.0 | 13.0 | 0.00 | 0.00 | 0.00 | 39 | 1006.7 |
| 20260509162342 | 58 | 355 | 3.0 | 10.0 | 0.00 | 0.00 | 0.00 | 40 | 1006.6 |
| 20260509162058 | 58 | 319 | 3.0 | 12.0 | 0.00 | 0.00 | 0.00 | 40 | 1006.7 |
| 20260509161340 | 58 | 306 | 3.0 | 12.0 | 0.00 | 0.00 | 0.00 | 40 | 1006.6 |
| 20260509160841 | 58 | 355 | 3.0 | 11.0 | 0.00 | 0.00 | 0.00 | 40 | 1006.6 |
| 20260509160338 | 58 | 331 | 2.0 | 11.0 | 0.00 | 0.00 | 0.00 | 40 | 1006.5 |
| 20260509155836 | 58 | 308 | 2.0 | 10.0 | 0.00 | 0.00 | 0.00 | 41 | 1006.4 |
| 20260509155331 | 58 | 294 | 4.0 | 10.0 | 0.00 | 0.00 | 0.00 | 42 | 1006.4 |
| 20260509154830 | 57 | 309 | 5.0 | 15.0 | 0.00 | 0.00 | 0.00 | 42 | 1006.4 |
| 20260509154330 | 57 | 320 | 5.0 | 15.0 | 0.00 | 0.00 | 0.00 | 41 | 1006.2 |
| 20260509153829 | 58 | 338 | 2.0 | 11.0 | 0.00 | 0.00 | 0.00 | 42 | 1006.2 |
| 20260509153331 | 58 | 331 | 1.0 | 7.0 | 0.00 | 0.00 | 0.00 | 42 | 1006.1 |
| 20260509153050 | 58 | 314 | 1.0 | 11.0 | 0.00 | 0.00 | 0.00 | 44 | 1006.0 |
| 20260509152331 | 57 | 268 | 2.0 | 11.0 | 0.00 | 0.00 | 0.00 | 46 | 1005.9 |
| 20260509152312 | 56 | 355 | 2.0 | 11.0 | 0.00 | 0.00 | 0.00 | 46 | 1005.9 |
| 20260509151330 | 56 | 315 | 3.0 | 11.0 | 0.00 | 0.00 | 0.00 | 47 | 1005.8 |
| 20260509150830 | 56 | 0 | 2.0 | 13.0 | 0.00 | 0.00 | 0.00 | 50 | 1005.8 |
| 20260509150330 | 56 | 5 | 2.0 | 13.0 | 0.00 | 0.00 | 0.00 | 48 | 1005.7 |
| 20260509145830 | 56 | 329 | 2.0 | 8.0 | 0.00 | 0.00 | 0.00 | 49 | 1005.6 |
| 20260509145332 | 56 | 350 | 2.0 | 8.0 | 0.00 | 0.00 | 0.00 | 51 | 1005.6 |
| 20260509144829 | 55 | 355 | 3.0 | 14.0 | 0.00 | 0.00 | 0.00 | 52 | 1005.5 |
| 20260509144323 | 55 | 344 | 3.0 | 14.0 | 0.00 | 0.00 | 0.00 | 51 | 1005.5 |
| 20260509143815 | 55 | 296 | 1.0 | 9.0 | 0.00 | 0.00 | 0.00 | 52 | 1005.4 |
| 20260509143314 | 55 | 292 | 1.0 | 7.0 | 0.00 | 0.00 | 0.00 | 57 | 1005.4 |
| 20260509142813 | 54 | 337 | 2.0 | 15.0 | 0.00 | 0.00 | 0.00 | 57 | 1005.4 |
| 20260509142315 | 54 | 290 | 4.0 | 15.0 | 0.00 | 0.00 | 0.00 | 59 | 1005.3 |
| 20260509141814 | 53 | 316 | 3.0 | 15.0 | 0.00 | 0.00 | 0.00 | 58 | 1005.3 |
| 20260509141315 | 53 | 311 | 2.0 | 10.0 | 0.00 | 0.00 | 0.00 | 62 | 1005.2 |
| 20260509140815 | 53 | 328 | 2.0 | 13.0 | 0.00 | 0.00 | 0.00 | 62 | 1005.1 |
| 20260509140315 | 53 | 317 | 3.0 | 13.0 | 0.00 | 0.00 | 0.00 | 62 | 1005.0 |
| 20260509135815 | 54 | 306 | 4.0 | 11.0 | 0.00 | 0.00 | 0.00 | 63 | 1005.0 |
| 20260509135315 | 54 | 314 | 3.0 | 12.0 | 0.00 | 0.00 | 0.00 | 64 | 1004.8 |
| 20260509134814 | 54 | 348 | 2.0 | 12.0 | 0.00 | 0.00 | 0.00 | 66 | 1004.8 |
| 20260509134312 | 53 | 5 | 2.0 | 7.0 | 0.00 | 0.00 | 0.00 | 68 | 1004.8 |